JTM125 ZGHA-ZGSD

Flight info

Callsign JTM125
Flight time 1h 10m
Altitude 33100
Route UBMOG W615 IDAXI R473 NOLON W90 POU W7 ZUH
Aircraft B738/M-SDE2FGHIRWY/L

Departure

Time 2026-04-27 12:23
Airport Changsha Huanghua International Airport (ZGHA)

Arrival

Time 2026-04-27 13:34
Airport Zhuhai Jinwan Airport (ZGSD)
Time Latitude Longitude Altitude Speed Heading
2026-04-27 12:12 28.18999 113.21592 226 ft 0 kts 268°
2026-04-27 12:17 28.18999 113.21593 226 ft 0 kts 268°
2026-04-27 12:17 28.18999 113.21600 226 ft 1 kts 268°
2026-04-27 12:17 28.18999 113.21613 226 ft 2 kts 268°
2026-04-27 12:17 28.19000 113.21632 226 ft 2 kts 268°
2026-04-27 12:18 28.19000 113.21652 226 ft 1 kts 308°
2026-04-27 12:18 28.18996 113.21654 226 ft 0 kts
2026-04-27 12:18 28.19044 113.21664 226 ft 12 kts
2026-04-27 12:18 28.19128 113.21665 226 ft 12 kts 358°
2026-04-27 12:19 28.19213 113.21661 226 ft 12 kts 358°
2026-04-27 12:19 28.19299 113.21654 226 ft 12 kts 356°
2026-04-27 12:19 28.19385 113.21649 226 ft 12 kts 356°
2026-04-27 12:19 28.19472 113.21652 226 ft 12 kts
2026-04-27 12:20 28.19582 113.21649 226 ft 19 kts 356°
2026-04-27 12:20 28.19716 113.21640 226 ft 19 kts 356°
2026-04-27 12:20 28.19852 113.21632 226 ft 19 kts 355°
2026-04-27 12:20 28.19986 113.21624 226 ft 19 kts 358°
2026-04-27 12:21 28.20083 113.21694 226 ft 17 kts 35°
2026-04-27 12:21 28.20198 113.21708 226 ft 16 kts 358°
2026-04-27 12:21 28.20313 113.21702 226 ft 16 kts 357°
2026-04-27 12:21 28.20431 113.21694 226 ft 16 kts 357°
2026-04-27 12:22 28.20547 113.21686 226 ft 16 kts
2026-04-27 12:22 28.20605 113.21774 226 ft 15 kts 86°
2026-04-27 12:22 28.20569 113.21871 226 ft 13 kts 168°
2026-04-27 12:22 28.20476 113.21883 226 ft 14 kts 174°
2026-04-27 12:23 28.20239 113.21898 226 ft 68 kts 177°
2026-04-27 12:23 28.19531 113.21939 226 ft 131 kts 176°
2026-04-27 12:23 28.18444 113.22007 290 ft 173 kts 176°
2026-04-27 12:23 28.17273 113.22018 965 ft 168 kts 178°
2026-04-27 12:24 28.16196 113.22003 1985 ft 151 kts 180°
2026-04-27 12:24 28.15131 113.21993 2539 ft 163 kts 176°
2026-04-27 12:24 28.13980 113.22100 3262 ft 165 kts 173°
2026-04-27 12:24 28.12852 113.22270 3945 ft 171 kts 173°
2026-04-27 12:25 28.11646 113.22411 4565 ft 183 kts 176°
2026-04-27 12:25 28.10307 113.22506 5149 ft 201 kts 178°
2026-04-27 12:25 28.08858 113.22591 5843 ft 214 kts 179°
2026-04-27 12:25 28.07386 113.22680 6694 ft 218 kts 179°
2026-04-27 12:26 28.05875 113.22776 7558 ft 221 kts 179°
2026-04-27 12:26 28.04339 113.23109 8332 ft 233 kts 158°
2026-04-27 12:26 28.03047 113.24260 9121 ft 245 kts 136°
2026-04-27 12:26 28.01938 113.25723 9868 ft 251 kts 135°
2026-04-27 12:27 28.00780 113.27187 10665 ft 254 kts 137°
2026-04-27 12:27 27.99542 113.28629 11461 ft 258 kts 138°
2026-04-27 12:27 27.98295 113.30106 12250 ft 264 kts 134°
2026-04-27 12:27 27.97356 113.31898 12982 ft 275 kts 108°
2026-04-27 12:28 27.97127 113.34038 13771 ft 281 kts 91°
2026-04-27 12:28 27.97168 113.36271 14529 ft 286 kts 90°
2026-04-27 12:28 27.97199 113.38497 15337 ft 288 kts 91°
2026-04-27 12:28 27.97181 113.40756 16070 ft 292 kts 92°
2026-04-27 12:29 27.97133 113.43066 16831 ft 295 kts 92°
2026-04-27 12:29 27.97073 113.45350 17558 ft 297 kts 93°
2026-04-27 12:29 27.97010 113.47716 18234 ft 302 kts 92°
2026-04-27 12:29 27.96947 113.50102 18904 ft 307 kts 92°
2026-04-27 12:30 27.96801 113.52505 19416 ft 316 kts 101°
2026-04-27 12:30 27.96215 113.54929 19826 ft 327 kts 114°
2026-04-27 12:30 27.95118 113.57246 20209 ft 338 kts 127°
2026-04-27 12:30 27.93607 113.59296 20600 ft 349 kts 137°
2026-04-27 12:31 27.91811 113.61218 20985 ft 361 kts 141°
2026-04-27 12:31 27.89839 113.63061 21323 ft 375 kts 143°
2026-04-27 12:31 27.87717 113.64881 21663 ft 387 kts 148°
2026-04-27 12:31 27.85337 113.66391 21957 ft 397 kts 160°
2026-04-27 12:32 27.82711 113.67404 22280 ft 406 kts 169°
2026-04-27 12:32 27.79859 113.67890 22526 ft 416 kts 180°
2026-04-27 12:32 27.76942 113.67899 22804 ft 427 kts 185°
2026-04-27 12:32 27.73927 113.67714 23035 ft 440 kts 187°
2026-04-27 12:33 27.70833 113.67445 23564 ft 445 kts 188°
2026-04-27 12:33 27.67765 113.67151 24087 ft 450 kts 188°
2026-04-27 12:33 27.64630 113.66850 24741 ft 453 kts 187°
2026-04-27 12:33 27.61444 113.66688 25320 ft 458 kts 184°
2026-04-27 12:34 27.58247 113.66682 25898 ft 462 kts 182°
2026-04-27 12:34 27.55031 113.66763 26767 ft 458 kts 181°
2026-04-27 12:34 27.51856 113.66881 27582 ft 455 kts 181°
2026-04-27 12:34 27.48705 113.67007 28381 ft 452 kts 181°
2026-04-27 12:35 27.45562 113.67152 29024 ft 453 kts 180°
2026-04-27 12:35 27.42411 113.67456 29308 ft 464 kts 177°
2026-04-27 12:35 27.39162 113.67918 29471 ft 475 kts 175°
2026-04-27 12:35 27.35851 113.68473 29948 ft 479 kts 174°
2026-04-27 12:36 27.32606 113.69048 30640 ft 477 kts 174°
2026-04-27 12:36 27.29312 113.69635 31333 ft 475 kts 174°
2026-04-27 12:36 27.26076 113.70203 31996 ft 473 kts 175°
2026-04-27 12:36 27.22840 113.70758 32598 ft 471 kts 175°
2026-04-27 12:37 27.19602 113.71302 32973 ft 475 kts 175°
2026-04-27 12:37 27.13055 113.72377 32996 ft 468 kts 175°
2026-04-27 12:38 27.06557 113.73425 32996 ft 468 kts 175°
2026-04-27 12:38 27.00086 113.74457 32992 ft 470 kts 175°
2026-04-27 12:39 26.93586 113.75492 32998 ft 470 kts 175°
2026-04-27 12:39 26.87056 113.76532 33013 ft 470 kts 175°
2026-04-27 12:40 26.80545 113.77567 33027 ft 470 kts 175°
2026-04-27 12:40 26.74059 113.78636 33044 ft 470 kts 173°
2026-04-27 12:41 26.67647 113.80332 33040 ft 473 kts 168°
2026-04-27 12:41 26.61309 113.82390 33050 ft 474 kts 167°
2026-04-27 12:42 26.54930 113.84499 33048 ft 473 kts 167°
2026-04-27 12:42 26.48595 113.86541 33062 ft 473 kts 168°
2026-04-27 12:43 26.42248 113.88447 33078 ft 472 kts 169°
2026-04-27 12:43 26.35849 113.90286 33103 ft 471 kts 169°
2026-04-27 12:44 26.29491 113.92102 33137 ft 471 kts 169°
2026-04-27 12:44 26.23097 113.93934 33166 ft 471 kts 169°
2026-04-27 12:45 26.16729 113.95761 33176 ft 472 kts 168°
2026-04-27 12:45 26.10340 113.97598 33182 ft 473 kts 169°
2026-04-27 12:46 26.03996 113.99420 33179 ft 472 kts 168°
2026-04-27 12:46 25.97578 114.01276 33166 ft 470 kts 168°
2026-04-27 12:47 25.91268 114.03148 33145 ft 470 kts 168°
2026-04-27 12:47 25.84938 114.05039 33124 ft 470 kts 168°
2026-04-27 12:48 25.78595 114.06934 33110 ft 471 kts 168°
2026-04-27 12:48 25.72283 114.08811 33087 ft 470 kts 168°
2026-04-27 12:49 25.65940 114.10693 33085 ft 470 kts 168°
2026-04-27 12:49 25.59625 114.12561 33092 ft 470 kts 168°
2026-04-27 12:50 25.53307 114.14429 33092 ft 469 kts 168°
2026-04-27 12:50 25.46981 114.16296 33094 ft 468 kts 168°
2026-04-27 12:51 25.40687 114.18150 33084 ft 469 kts 168°
2026-04-27 12:51 25.34397 114.20001 33072 ft 468 kts 168°
2026-04-27 12:52 25.28101 114.21852 33065 ft 467 kts 168°
2026-04-27 12:52 25.21821 114.23698 33058 ft 468 kts 168°
2026-04-27 12:53 25.12379 114.26352 33050 ft 465 kts 172°
2026-04-27 12:53 25.05991 114.26640 33052 ft 458 kts 189°
2026-04-27 12:54 24.99709 114.25501 33045 ft 456 kts 194°
2026-04-27 12:54 24.93525 114.24062 33053 ft 455 kts 194°
2026-04-27 12:55 24.87310 114.22603 33062 ft 456 kts 194°
2026-04-27 12:55 24.81078 114.21184 33075 ft 456 kts 194°
2026-04-27 12:56 24.74857 114.19801 33086 ft 456 kts 194°
2026-04-27 12:56 24.68613 114.18433 33080 ft 455 kts 194°
2026-04-27 12:57 24.62406 114.17084 33079 ft 457 kts 193°
2026-04-27 12:57 24.56132 114.15728 33074 ft 456 kts 193°
2026-04-27 12:58 24.49897 114.14384 33068 ft 457 kts 193°
2026-04-27 12:58 24.43648 114.13039 33070 ft 458 kts 193°
2026-04-27 12:59 24.37451 114.11570 33071 ft 456 kts 198°
2026-04-27 12:59 24.31565 114.08984 33064 ft 453 kts 209°
2026-04-27 13:00 24.26104 114.05577 33057 ft 454 kts 213°
2026-04-27 13:00 24.20770 114.01830 33052 ft 452 kts 215°
2026-04-27 13:01 24.15509 113.98059 33065 ft 454 kts 214°
2026-04-27 13:01 24.10292 113.94166 33078 ft 454 kts 219°
2026-04-27 13:02 24.05493 113.89722 33085 ft 453 kts 223°
2026-04-27 13:02 24.00850 113.85075 33079 ft 453 kts 224°
2026-04-27 13:03 23.96197 113.80394 33060 ft 454 kts 224°
2026-04-27 13:03 23.91534 113.75754 33048 ft 454 kts 224°
2026-04-27 13:04 23.86855 113.71137 33040 ft 454 kts 224°
2026-04-27 13:04 23.82142 113.66507 33038 ft 454 kts 224°
2026-04-27 13:05 23.77434 113.61895 33034 ft 455 kts 224°
2026-04-27 13:05 23.72712 113.57278 33026 ft 456 kts 224°
2026-04-27 13:06 23.67995 113.52671 33018 ft 454 kts 224°
2026-04-27 13:06 23.63300 113.48093 33010 ft 456 kts 224°
2026-04-27 13:07 23.58569 113.43484 33006 ft 456 kts 224°
2026-04-27 13:07 23.53642 113.39095 32946 ft 454 kts 217°
2026-04-27 13:08 23.51016 113.37328 32755 ft 444 kts 211°
2026-04-27 13:08 23.48230 113.35886 32521 ft 433 kts 205°
2026-04-27 13:08 23.45432 113.34772 32231 ft 425 kts 201°
2026-04-27 13:08 23.42653 113.33817 31725 ft 422 kts 199°
2026-04-27 13:09 23.39833 113.32895 31204 ft 418 kts 199°
2026-04-27 13:09 23.37065 113.31982 30696 ft 414 kts 199°
2026-04-27 13:09 23.34341 113.31053 30161 ft 411 kts 200°
2026-04-27 13:09 23.31815 113.30162 29728 ft 406 kts 200°
2026-04-27 13:10 23.29145 113.29193 29207 ft 402 kts 201°
2026-04-27 13:10 23.26499 113.28214 28707 ft 399 kts 201°
2026-04-27 13:10 23.23886 113.27237 28149 ft 397 kts 201°
2026-04-27 13:10 23.21288 113.26258 27653 ft 393 kts 201°
2026-04-27 13:11 23.18734 113.25294 27166 ft 390 kts 202°
2026-04-27 13:11 23.16152 113.24317 26636 ft 387 kts 202°
2026-04-27 13:11 23.13630 113.23361 26123 ft 385 kts 202°
2026-04-27 13:11 23.11113 113.22407 25622 ft 382 kts 202°
2026-04-27 13:12 23.08600 113.21456 25118 ft 379 kts 202°
2026-04-27 13:12 23.06122 113.20523 24616 ft 376 kts 201°
2026-04-27 13:12 23.03623 113.19688 24136 ft 374 kts 198°
2026-04-27 13:12 23.01069 113.19172 23626 ft 375 kts 189°
2026-04-27 13:13 22.98476 113.19031 23148 ft 374 kts 184°
2026-04-27 13:13 22.95899 113.19084 22670 ft 372 kts 181°
2026-04-27 13:13 22.93318 113.19215 22185 ft 369 kts 180°
2026-04-27 13:13 22.90765 113.19366 21716 ft 366 kts 180°
2026-04-27 13:14 22.88231 113.19511 21231 ft 363 kts 180°
2026-04-27 13:14 22.85691 113.19646 20750 ft 360 kts 180°
2026-04-27 13:14 22.83212 113.19766 20278 ft 357 kts 180°
2026-04-27 13:14 22.80734 113.19878 19796 ft 355 kts 180°
2026-04-27 13:15 22.78269 113.19985 19334 ft 351 kts 181°
2026-04-27 13:15 22.75842 113.20087 18878 ft 348 kts 180°
2026-04-27 13:15 22.73426 113.20187 18413 ft 345 kts 180°
2026-04-27 13:15 22.71038 113.20285 17933 ft 342 kts 180°
2026-04-27 13:16 22.68669 113.20381 17480 ft 339 kts 180°
2026-04-27 13:16 22.66317 113.20477 16998 ft 337 kts 180°
2026-04-27 13:16 22.63994 113.20574 16530 ft 334 kts 180°
2026-04-27 13:16 22.61665 113.20671 16061 ft 332 kts 180°
2026-04-27 13:17 22.59383 113.20765 15629 ft 328 kts 180°
2026-04-27 13:17 22.57083 113.20860 15155 ft 326 kts 180°
2026-04-27 13:17 22.54829 113.20952 14691 ft 323 kts 180°
2026-04-27 13:17 22.52616 113.21043 14233 ft 321 kts 180°
2026-04-27 13:18 22.50386 113.21135 13764 ft 318 kts 179°
2026-04-27 13:18 22.48185 113.21225 13338 ft 314 kts 179°
2026-04-27 13:18 22.45986 113.21316 12854 ft 313 kts 179°
2026-04-27 13:18 22.43812 113.21406 12389 ft 310 kts 179°
2026-04-27 13:19 22.41656 113.21495 11930 ft 308 kts 179°
2026-04-27 13:19 22.39546 113.21582 11497 ft 305 kts 179°
2026-04-27 13:19 22.37420 113.21669 11058 ft 303 kts 179°
2026-04-27 13:19 22.35301 113.21756 10598 ft 302 kts 179°
2026-04-27 13:20 22.33209 113.21841 10173 ft 299 kts 179°
2026-04-27 13:20 22.31142 113.21925 9716 ft 298 kts 179°
2026-04-27 13:20 22.29081 113.22008 9344 ft 294 kts 179°
2026-04-27 13:20 22.27033 113.22092 8916 ft 293 kts 179°
2026-04-27 13:21 22.25004 113.22175 8500 ft 291 kts 179°
2026-04-27 13:21 22.22978 113.22258 8083 ft 289 kts 179°
2026-04-27 13:21 22.20983 113.22340 7682 ft 286 kts 178°
2026-04-27 13:21 22.18996 113.22421 7279 ft 284 kts 178°
2026-04-27 13:22 22.17013 113.22503 6902 ft 281 kts 178°
2026-04-27 13:22 22.15074 113.22582 6489 ft 279 kts 178°
2026-04-27 13:22 22.13120 113.22662 6107 ft 276 kts 178°
2026-04-27 13:22 22.11207 113.22740 5705 ft 275 kts 178°
2026-04-27 13:23 22.09306 113.22817 5295 ft 274 kts 177°
2026-04-27 13:23 22.07397 113.22896 4885 ft 273 kts 177°
2026-04-27 13:23 22.05505 113.22974 4472 ft 272 kts 177°
2026-04-27 13:23 22.03615 113.23051 4071 ft 270 kts 177°
2026-04-27 13:24 22.01736 113.23129 3682 ft 269 kts 176°
2026-04-27 13:24 21.99861 113.23206 3294 ft 267 kts 176°
2026-04-27 13:24 21.98033 113.23154 3192 ft 257 kts 189°
2026-04-27 13:24 21.96462 113.22382 3205 ft 245 kts 216°
2026-04-27 13:25 21.95296 113.21110 3207 ft 232 kts 226°
2026-04-27 13:25 21.94281 113.19830 3201 ft 218 kts 225°
2026-04-27 13:25 21.93273 113.18684 3202 ft 204 kts 222°
2026-04-27 13:25 21.92309 113.17628 3208 ft 190 kts 221°
2026-04-27 13:26 21.91409 113.16651 3206 ft 176 kts 220°
2026-04-27 13:26 21.90503 113.15836 3200 ft 165 kts 200°
2026-04-27 13:26 21.89392 113.15725 3207 ft 161 kts 159°
2026-04-27 13:26 21.88507 113.16420 3214 ft 158 kts 133°
2026-04-27 13:27 21.87800 113.17280 3202 ft 143 kts 132°
2026-04-27 13:27 21.87182 113.18024 3215 ft 128 kts 133°
2026-04-27 13:27 21.86574 113.18757 3200 ft 129 kts 133°
2026-04-27 13:27 21.86006 113.19519 3200 ft 132 kts 117°
2026-04-27 13:28 21.85999 113.20478 3207 ft 139 kts 67°
2026-04-27 13:28 21.86588 113.21300 3294 ft 134 kts 55°
2026-04-27 13:28 21.87159 113.22108 3152 ft 140 kts 61°
2026-04-27 13:28 21.87698 113.23000 3085 ft 139 kts 63°
2026-04-27 13:29 21.88183 113.23840 3081 ft 137 kts 62°
2026-04-27 13:29 21.88782 113.24676 3000 ft 138 kts 54°
2026-04-27 13:29 21.89435 113.25428 2907 ft 139 kts 52°
2026-04-27 13:29 21.89958 113.26048 2816 ft 138 kts 54°
2026-04-27 13:30 21.90592 113.26819 2685 ft 138 kts 48°
2026-04-27 13:30 21.91316 113.27521 2550 ft 138 kts 49°
2026-04-27 13:30 21.91984 113.28282 2387 ft 139 kts 50°
2026-04-27 13:30 21.92653 113.29052 2172 ft 141 kts 52°
2026-04-27 13:31 21.93308 113.29830 1972 ft 137 kts 50°
2026-04-27 13:31 21.93985 113.30534 1725 ft 136 kts 47°
2026-04-27 13:31 21.94669 113.31248 1408 ft 136 kts 49°
2026-04-27 13:31 21.95318 113.31970 1173 ft 131 kts 51°
2026-04-27 13:32 21.95967 113.32658 885 ft 133 kts 46°
2026-04-27 13:32 21.96635 113.33347 636 ft 133 kts 49°
2026-04-27 13:32 21.97279 113.34068 409 ft 133 kts 50°
2026-04-27 13:32 21.97926 113.34759 306 ft 129 kts 48°
2026-04-27 13:33 21.98586 113.35434 206 ft 130 kts 49°
2026-04-27 13:33 21.99239 113.36116 83 ft 130 kts 50°
2026-04-27 13:33 21.99871 113.36803 38 ft 121 kts 50°
2026-04-27 13:33 22.00354 113.37331 31 ft 62 kts 44°
2026-04-27 13:34 22.00475 113.37456 33 ft 0 kts 39°